<?xml version="1.0" standalone="yes" ?><gpx version="1.1" creator="ALPINTOUREN.COM" xmlns="http://www.topografix.com/GPX/1/1" xmlns:xsi="http://www.w3.org/2001/XMLSchema-instance" xsi:schemaLocation="http://www.topografix.com/GPX/1/1 http://www.topografix.com/GPX/1/1/gpx.xsd"><metadata><name>GPX Track erstellt von ALPINTOUREN.COM</name><time>2009-01-01T01:00:00Z</time></metadata><trk><name>AlpinTouren.com GPX Track</name><number>1</number><trkseg><trkpt lat="47.337572150632674" lon="13.742847204339341"><ele>1048</ele><time>2009-01-01T01:00:00Z</time><type>Trackpoint</type></trkpt><trkpt lat="47.33733948798082" lon="13.74237513555272"><ele>1048</ele><time>2009-01-01T01:00:00Z</time><type>Trackpoint</type></trkpt><trkpt lat="47.336932325873185" lon="13.741988897454576"><ele>1053</ele><time>2009-01-01T01:00:00Z</time><type>Trackpoint</type></trkpt><trkpt lat="47.336670577146094" lon="13.739843130242662"><ele>1066</ele><time>2009-01-01T01:00:00Z</time><type>Trackpoint</type></trkpt><trkpt lat="47.336292493360695" lon="13.740830183160142"><ele>1062</ele><time>2009-01-01T01:00:00Z</time><type>Trackpoint</type></trkpt><trkpt lat="47.335768988265556" lon="13.740958929192857"><ele>1088</ele><time>2009-01-01T01:00:00Z</time><type>Trackpoint</type></trkpt><trkpt lat="47.335361814047815" lon="13.741688490044908"><ele>1100</ele><time>2009-01-01T01:00:00Z</time><type>Trackpoint</type></trkpt><trkpt lat="47.333325895863986" lon="13.744306326043443"><ele>1108</ele><time>2009-01-01T01:00:00Z</time><type>Trackpoint</type></trkpt><trkpt lat="47.33393667956077" lon="13.742418050896958"><ele>1114</ele><time>2009-01-01T01:00:00Z</time><type>Trackpoint</type></trkpt><trkpt lat="47.33428569564438" lon="13.741516828667955"><ele>1136</ele><time>2009-01-01T01:00:00Z</time><type>Trackpoint</type></trkpt><trkpt lat="47.33466379379856" lon="13.739456892144517"><ele>1146</ele><time>2009-01-01T01:00:00Z</time><type>Trackpoint</type></trkpt><trkpt lat="47.33443111833174" lon="13.740100622308091"><ele>1167</ele><time>2009-01-01T01:00:00Z</time><type>Trackpoint</type></trkpt><trkpt lat="47.33318047013304" lon="13.741988897454576"><ele>1186</ele><time>2009-01-01T01:00:00Z</time><type>Trackpoint</type></trkpt><trkpt lat="47.33259876320458" lon="13.742761373650865"><ele>1220</ele><time>2009-01-01T01:00:00Z</time><type>Trackpoint</type></trkpt><trkpt lat="47.33288961746974" lon="13.741817236077623"><ele>1246</ele><time>2009-01-01T01:00:00Z</time><type>Trackpoint</type></trkpt><trkpt lat="47.333267725619656" lon="13.739800214898423"><ele>1230</ele><time>2009-01-01T01:00:00Z</time><type>Trackpoint</type></trkpt><trkpt lat="47.33248242104997" lon="13.741302251946763"><ele>1246</ele><time>2009-01-01T01:00:00Z</time><type>Trackpoint</type></trkpt><trkpt lat="47.33120264043347" lon="13.743319273125962"><ele>1311</ele><time>2009-01-01T01:00:00Z</time><type>Trackpoint</type></trkpt><trkpt lat="47.3314935023877" lon="13.741516828667955"><ele>1294</ele><time>2009-01-01T01:00:00Z</time><type>Trackpoint</type></trkpt><trkpt lat="47.331929792315506" lon="13.740787267815904"><ele>1315</ele><time>2009-01-01T01:00:00Z</time><type>Trackpoint</type></trkpt><trkpt lat="47.33201704986857" lon="13.7398860455869"><ele>1338</ele><time>2009-01-01T01:00:00Z</time><type>Trackpoint</type></trkpt><trkpt lat="47.332162478803276" lon="13.738770246636705"><ele>1301</ele><time>2009-01-01T01:00:00Z</time><type>Trackpoint</type></trkpt><trkpt lat="47.33224973597187" lon="13.737911939751939"><ele>1320</ele><time>2009-01-01T01:00:00Z</time><type>Trackpoint</type></trkpt><trkpt lat="47.33166801879134" lon="13.736495733392076"><ele>1349</ele><time>2009-01-01T01:00:00Z</time><type>Trackpoint</type></trkpt><trkpt lat="47.33056273849547" lon="13.73615241063817"><ele>1373</ele><time>2009-01-01T01:00:00Z</time><type>Trackpoint</type></trkpt><trkpt lat="47.32986465481161" lon="13.735594511163072"><ele>1396</ele><time>2009-01-01T01:00:00Z</time><type>Trackpoint</type></trkpt><trkpt lat="47.32977739370236" lon="13.734993696343736"><ele>1409</ele><time>2009-01-01T01:00:00Z</time><type>Trackpoint</type></trkpt><trkpt lat="47.330388218439545" lon="13.73413538945897"><ele>1439</ele><time>2009-01-01T01:00:00Z</time><type>Trackpoint</type></trkpt><trkpt lat="47.33262784870317" lon="13.73340582860692"><ele>1453</ele><time>2009-01-01T01:00:00Z</time><type>Trackpoint</type></trkpt><trkpt lat="47.334343864767376" lon="13.731345892083482"><ele>1472</ele><time>2009-01-01T01:00:00Z</time><type>Trackpoint</type></trkpt><trkpt lat="47.335216393923446" lon="13.729843855035142"><ele>1501</ele><time>2009-01-01T01:00:00Z</time><type>Trackpoint</type></trkpt><trkpt lat="47.33466379379856" lon="13.729114294183091"><ele>1530</ele><time>2009-01-01T01:00:00Z</time><type>Trackpoint</type></trkpt><trkpt lat="47.334198441839746" lon="13.728255987298326"><ele>1590</ele><time>2009-01-01T01:00:00Z</time><type>Trackpoint</type></trkpt><trkpt lat="47.33358766117049" lon="13.726968526971177"><ele>1634</ele><time>2009-01-01T01:00:00Z</time><type>Trackpoint</type></trkpt><trkpt lat="47.33207522149051" lon="13.725809812676744"><ele>1706</ele><time>2009-01-01T01:00:00Z</time><type>Trackpoint</type></trkpt><trkpt lat="47.33073725797476" lon="13.724221944939927"><ele>1760</ele><time>2009-01-01T01:00:00Z</time><type>Trackpoint</type></trkpt><trkpt lat="47.32980648075478" lon="13.722376585137681"><ele>1850</ele><time>2009-01-01T01:00:00Z</time><type>Trackpoint</type></trkpt><trkpt lat="47.3289338622134" lon="13.720960378777818"><ele>1897</ele><time>2009-01-01T01:00:00Z</time><type>Trackpoint</type></trkpt><trkpt lat="47.327944877104485" lon="13.719758749139146"><ele>1892</ele><time>2009-01-01T01:00:00Z</time><type>Trackpoint</type></trkpt><trkpt lat="47.32736311250778" lon="13.7179133893369"><ele>1992</ele><time>2009-01-01T01:00:00Z</time><type>Trackpoint</type></trkpt><trkpt lat="47.326374097987845" lon="13.716068029534654"><ele>2049</ele><time>2009-01-01T01:00:00Z</time><type>Trackpoint</type></trkpt><trkpt lat="47.32541415442111" lon="13.71439433110936"><ele>2079</ele><time>2009-01-01T01:00:00Z</time><type>Trackpoint</type></trkpt><trkpt lat="47.32465782296061" lon="13.713536024224595"><ele>2090</ele><time>2009-01-01T01:00:00Z</time><type>Trackpoint</type></trkpt><trkpt lat="47.32390148067111" lon="13.712248563897447"><ele>2110</ele><time>2009-01-01T01:00:00Z</time><type>Trackpoint</type></trkpt><trkpt lat="47.32314512755261" lon="13.711819410455064"><ele>2167</ele><time>2009-01-01T01:00:00Z</time><type>Trackpoint</type></trkpt><trkpt lat="47.32259240111777" lon="13.710703611504869"><ele>2206</ele><time>2009-01-01T01:00:00Z</time><type>Trackpoint</type></trkpt></trkseg></trk></gpx>